Location: Pine Mountain Observatory
(43.7910°N, 120.9377°W)
Time: 15:26:50
(UTC-07:00)

Altair - Visible Passes

Search period start: 24 May 2019 00:00
Search period end: 03 June 2019 00:00
Orbit: 1501 x 1683 km, 47.2° (Epoch: 24 May)

Date Brightness Start Highest point End Pass type
(mag) Time Alt. Az. Time Alt. Az. Time Alt. Az.
24 May 9.3 01:48:49 11° SE 01:51:27 12° ESE 01:54:59 10° E visible
24 May 8.2 03:46:49 17° SSW 03:54:18 47° SE 04:03:47 10° ENE visible
25 May 9.3 01:24:51 10° SE 01:26:27 10° ESE 01:28:03 10° ESE visible
25 May 8.2 03:22:49 21° SSW 03:29:11 43° SE 03:38:30 10° ENE visible
26 May 8.3 02:58:46 24° S 03:04:04 40° SE 03:13:13 10° ENE visible
27 May 8.3 02:34:41 27° S 02:38:58 37° SE 02:47:55 10° ENE visible
27 May 7.7 04:32:55 10° WSW 04:43:03 84° SSE 04:53:15 10° ENE visible
28 May 8.3 02:10:32 28° SSE 02:13:52 34° SE 02:22:36 10° ENE visible
28 May 7.7 04:08:31 13° WSW 04:17:51 81° SSE 04:28:02 10° ENE visible
29 May 8.3 01:46:20 28° SSE 01:48:47 32° SE 01:57:15 10° ENE visible
29 May 7.7 03:44:18 17° SW 03:52:39 77° SSE 04:02:48 10° ENE visible
30 May 8.4 01:22:03 28° SE 01:23:43 29° SE 01:31:53 10° ENE visible
30 May 7.6 03:20:02 21° SW 03:27:26 74° SSE 03:37:35 10° ENE visible
31 May 8.5 00:57:44 26° SE 00:58:39 26° SE 01:06:28 10° ENE visible
31 May 7.6 02:55:41 25° SW 03:02:15 70° SSE 03:12:21 10° ENE visible
01 Jun 8.6 00:33:19 24° SE 00:33:36 24° SE 00:41:01 10° E visible
01 Jun 7.6 02:31:17 29° SW 02:37:04 67° SSE 02:47:07 10° ENE visible
01 Jun 7.9 04:31:55 10° W 04:42:05 77° N 04:52:18 10° ENE visible
02 Jun 8.6 00:08:49 22° SE 00:08:49 22° SE 00:15:32 10° E visible
02 Jun 7.6 02:06:47 32° SSW 02:11:54 63° SE 02:21:53 10° ENE visible
02 Jun 7.8 04:06:40 10° W 04:16:49 78° NNW 04:27:03 10° ENE visible
02 Jun 8.7 23:44:14 19° ESE 23:44:14 19° ESE 23:49:58 10° E visible
